Simultaneous Nadir Overpasses (SNOs) Predictions

Prediction of SNOs between METOP-B and NOAA-19 Satellite Orbit:

Table of predicted SNOs for the next 14.0 days since TLE Epoch: 4/8/2016
Index Date (METOP-B) Time (METOP-B) Lat,Lon (METOP-B) SZA (METOP-B ) Date (NOAA-19) Time (NOAA-19) Lat,Lon (NOAA-19) SZA (NOAA-19 ) Distance(km) Time Diff (sec)
1 04/12/2016 14:18:55 -75.96, 145.12 113.10 04/12/2016 14:17:48 -75.95, 145.00 113.11 3.45 67
2 04/12/2016 15:09:35 75.94, -47.62 66.87 04/12/2016 15:08:46 75.92, -47.64 66.85 2.19 49
3 04/12/2016 16:00:18 -75.90, 119.56 113.19 04/12/2016 15:59:49 -75.90, 119.68 113.19 3.04 29
4 04/12/2016 16:50:57 75.92, -73.02 66.83 04/12/2016 16:50:48 75.91, -73.13 66.82 2.98 9
5 04/12/2016 17:41:40 -75.88, 94.16 113.23 04/12/2016 17:41:51 -75.89, 94.19 113.22 1.63 11
6
